Time,TemperatureF,DewpointF,PressureIn,WindDirection,WindDirectionDegrees,WindSpeedMPH,WindSpeedGustMPH,Humidity,HourlyPrecipIn,Conditions,Clouds,dailyrainin,SoftwareType,DateUTC
2013-07-26 00:00:00,82.4,74.8,30.01,WSW,244,6.0,12.0,78,0.00,CLR,,0.00,WeatherDisplay:10.37,2013-07-26 04:00:00,
2013-07-26 00:10:00,82.3,74.7,30.01,WSW,251,6.0,12.0,78,0.00,CLR,,0.00,WeatherDisplay:10.37,2013-07-26 04:10:00,
2013-07-26 00:20:00,82.3,75.1,30.01,WSW,245,3.0,12.0,79,0.00,CLR,,0.00,WeatherDisplay:10.37,2013-07-26 04:20:00,
2013-07-26 00:30:00,82.3,75.1,30.01,WSW,247,5.0,13.0,79,0.00,CLR,,0.00,WeatherDisplay:10.37,2013-07-26 04:30:00,
2013-07-26 00:40:00,82.3,75.1,30.00,SW,228,6.0,12.0,79,0.00,CLR,,0.00,WeatherDisplay:10.37,2013-07-26 04:40:00,
2013-07-26 00:50:00,82.2,75.5,30.00,WSW,240,5.0,12.0,80,0.00,CLR,,0.00,WeatherDisplay:10.37,2013-07-26 04:50:00,
2013-07-26 01:00:00,82.1,75.0,30.00,SW,233,7.0,12.0,79,0.00,CLR,,0.00,WeatherDisplay:10.37,2013-07-26 05:00:00,
2013-07-26 01:10:00,82.2,75.0,30.00,SW,236,5.0,12.0,79,0.00,CLR,,0.00,WeatherDisplay:10.37,2013-07-26 05:10:00,
2013-07-26 01:20:00,82.2,75.0,30.00,WSW,249,6.0,12.0,79,0.00,CLR,,0.00,WeatherDisplay:10.37,2013-07-26 05:20:00,
2013-07-26 01:30:00,82.2,75.0,30.00,SW,236,5.0,10.0,79,0.00,CLR,,0.00,WeatherDisplay:10.37,2013-07-26 05:30:00,
2013-07-26 01:40:00,82.2,75.0,29.99,WSW,241,5.0,12.0,79,0.00,CLR,,0.00,WeatherDisplay:10.37,2013-07-26 05:40:00,
2013-07-26 01:50:00,82.2,75.4,29.99,WSW,241,7.0,12.0,80,0.00,CLR,,0.00,WeatherDisplay:10.37,2013-07-26 05:50:00,
2013-07-26 02:00:00,82.2,75.0,29.99,WSW,248,5.0,12.0,79,0.00,CLR,,0.00,WeatherDisplay:10.37,2013-07-26 06:00:00,
2013-07-26 02:10:00,82.2,75.4,29.98,WSW,239,5.0,12.0,80,0.00,CLR,,0.00,WeatherDisplay:10.37,2013-07-26 06:10:00,
2013-07-26 02:20:00,82.1,75.0,29.98,SW,236,8.0,13.0,79,0.00,CLR,,0.00,WeatherDisplay:10.37,2013-07-26 06:20:00,
2013-07-26 02:30:00,82.2,75.0,29.98,WSW,239,6.0,13.0,79,0.00,CLR,,0.00,WeatherDisplay:10.37,2013-07-26 06:30:00,
2013-07-26 02:40:00,82.2,75.0,29.98,WSW,244,6.0,15.0,79,0.00,CLR,,0.00,WeatherDisplay:10.37,2013-07-26 06:40:00,
2013-07-26 02:50:00,82.2,75.4,29.98,WSW,243,6.0,10.0,80,0.00,CLR,,0.00,WeatherDisplay:10.37,2013-07-26 06:50:00,
2013-07-26 03:00:00,82.1,75.7,29.98,WSW,244,6.0,14.0,81,0.00,CLR,,0.00,WeatherDisplay:10.37,2013-07-26 07:00:00,
2013-07-26 03:10:00,82.1,75.3,29.98,WSW,248,7.0,14.0,80,0.00,CLR,,0.00,WeatherDisplay:10.37,2013-07-26 07:10:00,
2013-07-26 03:20:00,82.2,75.4,29.98,WSW,244,6.0,15.0,80,0.00,CLR,,0.00,WeatherDisplay:10.37,2013-07-26 07:20:00,
2013-07-26 03:30:00,82.1,75.7,29.97,WSW,247,6.0,13.0,81,0.00,CLR,,0.00,WeatherDisplay:10.37,2013-07-26 07:30:00,
2013-07-26 03:40:00,82.1,75.7,29.97,WSW,244,5.0,12.0,81,0.00,CLR,,0.00,WeatherDisplay:10.37,2013-07-26 07:40:00,
2013-07-26 03:50:00,82.0,75.6,29.97,SW,236,3.0,12.0,81,0.00,CLR,,0.00,WeatherDisplay:10.37,2013-07-26 07:50:00,
2013-07-26 04:00:00,82.1,75.7,29.97,WSW,241,8.0,13.0,81,0.00,CLR,,0.00,WeatherDisplay:10.37,2013-07-26 08:00:00,
2013-07-26 04:10:00,82.1,75.7,29.96,WSW,251,9.0,17.0,81,0.00,CLR,,0.00,WeatherDisplay:10.37,2013-07-26 08:10:00,
2013-07-26 04:20:00,82.2,75.8,29.96,WSW,241,9.0,17.0,81,0.00,CLR,,0.00,WeatherDisplay:10.37,2013-07-26 08:20:00,
2013-07-26 04:30:00,82.2,76.5,29.95,WSW,237,8.0,15.0,83,0.00,CLR,,0.00,WeatherDisplay:10.37,2013-07-26 08:30:00,
2013-07-26 04:40:00,82.1,76.1,29.95,WSW,252,10.0,16.0,82,0.00,CLR,,0.00,WeatherDisplay:10.37,2013-07-26 08:40:00,
2013-07-26 04:50:00,82.2,75.8,29.95,WSW,243,8.0,15.0,81,0.00,CLR,,0.00,WeatherDisplay:10.37,2013-07-26 08:50:00,
2013-07-26 05:00:00,82.4,76.0,29.95,WSW,249,10.0,20.0,81,0.00,CLR,,0.00,WeatherDisplay:10.37,2013-07-26 09:00:00,
2013-07-26 05:10:00,82.4,76.4,29.95,WSW,249,9.0,17.0,82,0.00,CLR,,0.00,WeatherDisplay:10.37,2013-07-26 09:10:00,
2013-07-26 05:20:00,82.4,76.3,29.95,WSW,257,8.0,15.0,82,0.00,CLR,,0.00,WeatherDisplay:10.37,2013-07-26 09:20:00,
2013-07-26 05:30:00,82.4,76.7,29.95,WSW,247,8.0,16.0,83,0.00,CLR,,0.00,WeatherDisplay:10.37,2013-07-26 09:30:00,
2013-07-26 05:40:00,82.4,76.7,29.95,West,259,10.0,16.0,83,0.00,CLR,,0.00,WeatherDisplay:10.37,2013-07-26 09:40:00,
2013-07-26 05:50:00,82.5,76.8,29.95,WSW,257,10.0,18.0,83,0.00,CLR,,0.00,WeatherDisplay:10.37,2013-07-26 09:50:00,
2013-07-26 06:00:00,82.5,76.8,29.96,WSW,254,8.0,16.0,83,0.00,CLR,,0.00,WeatherDisplay:10.37,2013-07-26 10:00:00,
2013-07-26 06:10:00,82.5,76.4,29.96,WSW,253,12.0,16.0,82,0.00,CLR,,0.00,WeatherDisplay:10.37,2013-07-26 10:10:00,
2013-07-26 06:20:00,82.5,76.4,29.97,WSW,244,8.0,16.0,82,0.00,CLR,,0.00,WeatherDisplay:10.37,2013-07-26 10:20:00,
2013-07-26 06:30:00,82.5,76.8,29.98,WSW,252,10.0,16.0,83,0.00,CLR,,0.00,WeatherDisplay:10.37,2013-07-26 10:30:00,
2013-07-26 06:40:00,82.6,76.9,29.98,WSW,257,6.0,12.0,83,0.00,CLR,,0.00,WeatherDisplay:10.37,2013-07-26 10:40:00,
2013-07-26 06:50:00,82.6,76.9,29.99,West,260,5.0,12.0,83,0.00,CLR,,0.00,WeatherDisplay:10.37,2013-07-26 10:50:00,
2013-07-26 07:00:00,81.5,74.7,30.01,WNW,286,8.0,29.0,80,0.07,,,0.07,WeatherDisplay:10.37,2013-07-26 11:00:00,
2013-07-26 07:10:00,78.5,74.9,30.01,West,267,7.0,14.0,89,0.23,RA,,0.30,WeatherDisplay:10.37,2013-07-26 11:10:00,
2013-07-26 07:20:00,77.8,75.3,30.00,WSW,256,3.0,8.0,92,0.00,RA,,0.30,WeatherDisplay:10.37,2013-07-26 11:20:00,
2013-07-26 07:30:00,77.9,75.4,30.00,WSW,255,1.0,9.0,92,0.00,RA,,0.30,WeatherDisplay:10.37,2013-07-26 11:30:00,
2013-07-26 07:40:00,78.3,75.7,30.00,West,259,1.0,4.0,92,0.00,RA,,0.30,WeatherDisplay:10.37,2013-07-26 11:40:00,
2013-07-26 07:50:00,78.7,76.1,30.00,WNW,297,1.0,6.0,92,0.00,RA,,0.30,WeatherDisplay:10.37,2013-07-26 11:50:00,
2013-07-26 08:00:00,79.1,76.6,30.00,WNW,287,2.0,6.0,92,0.00,RA,,0.30,WeatherDisplay:10.37,2013-07-26 12:00:00,
2013-07-26 08:10:00,79.5,77.0,30.00,West,280,5.0,9.0,92,0.00,RA,,0.30,WeatherDisplay:10.37,2013-07-26 12:10:00,
2013-07-26 08:20:00,80.0,77.1,30.00,WNW,288,5.0,9.0,91,0.00,RA,,0.30,WeatherDisplay:10.37,2013-07-26 12:20:00,
2013-07-26 08:30:00,80.4,77.5,30.01,WNW,297,5.0,12.0,91,0.00,RA,,0.30,WeatherDisplay:10.37,2013-07-26 12:30:00,
2013-07-26 08:40:00,80.6,77.4,30.01,WNW,291,3.0,9.0,90,0.00,RA,,0.30,WeatherDisplay:10.37,2013-07-26 12:40:00,
2013-07-26 08:50:00,80.5,77.0,30.01,NW,312,3.0,8.0,89,0.00,RA,,0.30,WeatherDisplay:10.37,2013-07-26 12:50:00,
2013-07-26 09:00:00,80.2,76.3,30.00,NW,316,0.0,6.0,88,0.00,RA,,0.30,WeatherDisplay:10.37,2013-07-26 13:00:00,
2013-07-26 09:10:00,80.7,77.2,30.00,NW,324,2.0,4.0,89,0.00,RA,,0.30,WeatherDisplay:10.37,2013-07-26 13:10:00,
2013-07-26 09:20:00,80.9,77.3,30.01,NW,308,2.0,6.0,89,0.00,RA,,0.30,WeatherDisplay:10.37,2013-07-26 13:20:00,
2013-07-26 09:30:00,81.3,77.4,30.00,NW,304,2.0,6.0,88,0.00,RA,,0.30,WeatherDisplay:10.37,2013-07-26 13:30:00,
2013-07-26 09:40:00,81.7,77.8,30.00,WNW,290,3.0,7.0,88,0.00,RA,,0.30,WeatherDisplay:10.37,2013-07-26 13:40:00,
2013-07-26 09:50:00,82.5,78.6,30.00,WNW,289,3.0,5.0,88,0.00,RA,,0.30,WeatherDisplay:10.37,2013-07-26 13:50:00,
2013-07-26 10:00:00,83.3,78.6,30.00,WNW,288,6.0,10.0,86,0.00,RA,,0.30,WeatherDisplay:10.37,2013-07-26 14:00:00,
2013-07-26 10:10:00,83.9,77.9,29.99,West,280,7.0,14.0,82,0.00,RA,,0.30,WeatherDisplay:10.37,2013-07-26 14:10:00,
2013-07-26 10:20:00,84.8,77.9,30.00,West,276,7.0,13.0,80,0.00,RA,,0.30,WeatherDisplay:10.37,2013-07-26 14:20:00,
2013-07-26 10:30:00,84.9,78.0,30.00,West,275,8.0,13.0,80,0.00,RA,,0.30,WeatherDisplay:10.37,2013-07-26 14:30:00,
2013-07-26 10:40:00,85.0,78.1,30.00,WNW,286,7.0,12.0,80,0.00,RA,,0.30,WeatherDisplay:10.37,2013-07-26 14:40:00,
2013-07-26 10:50:00,85.6,78.0,30.00,WNW,285,7.0,13.0,78,0.00,RA,,0.30,WeatherDisplay:10.37,2013-07-26 14:50:00,
2013-07-26 11:00:00,86.6,77.7,30.00,West,280,9.0,14.0,75,0.00,RA,,0.30,WeatherDisplay:10.37,2013-07-26 15:00:00,
2013-07-26 11:10:00,86.6,77.7,30.00,West,281,8.0,13.0,75,0.00,RA,,0.30,WeatherDisplay:10.37,2013-07-26 15:10:00,
2013-07-26 11:20:00,87.3,78.4,30.00,WNW,283,8.0,13.0,75,0.00,RA,,0.30,WeatherDisplay:10.37,2013-07-26 15:20:00,
2013-07-26 11:30:00,88.2,77.6,30.00,WNW,284,9.0,13.0,71,0.00,RA,,0.30,WeatherDisplay:10.37,2013-07-26 15:30:00,
2013-07-26 11:40:00,88.6,79.3,30.00,WNW,303,6.0,10.0,74,0.00,RA,,0.30,WeatherDisplay:10.37,2013-07-26 15:40:00,
2013-07-26 11:50:00,88.3,79.0,30.01,NW,311,6.0,12.0,74,0.00,RA,,0.30,WeatherDisplay:10.37,2013-07-26 15:50:00,
2013-07-26 12:00:00,88.2,78.0,30.01,WNW,302,2.0,12.0,72,0.00,RA,,0.30,WeatherDisplay:10.37,2013-07-26 16:00:00,
2013-07-26 12:10:00,88.7,77.7,30.01,WNW,287,5.0,9.0,70,0.00,RA,,0.30,WeatherDisplay:10.37,2013-07-26 16:10:00,
2013-07-26 12:20:00,88.8,76.9,30.01,WNW,302,5.0,10.0,68,0.00,RA,,0.30,WeatherDisplay:10.37,2013-07-26 16:20:00,
2013-07-26 12:30:00,89.1,78.9,30.01,WNW,295,5.0,9.0,72,0.00,RA,,0.30,WeatherDisplay:10.37,2013-07-26 16:30:00,
2013-07-26 12:40:00,89.6,78.1,30.01,WNW,288,7.0,12.0,69,0.00,RA,,0.30,WeatherDisplay:10.37,2013-07-26 16:40:00,
2013-07-26 12:50:00,90.6,78.6,30.00,West,281,7.0,12.0,68,0.00,RA,,0.30,WeatherDisplay:10.37,2013-07-26 16:50:00,
2013-07-26 13:00:00,90.9,78.9,30.00,West,274,6.0,12.0,68,0.00,RA,,0.30,WeatherDisplay:10.37,2013-07-26 17:00:00,
2013-07-26 13:10:00,90.1,78.1,30.00,WNW,293,8.0,12.0,68,0.00,RA,,0.30,WeatherDisplay:10.37,2013-07-26 17:10:00,
2013-07-26 13:20:00,90.5,78.0,30.00,WNW,290,5.0,12.0,67,0.00,RA,,0.30,WeatherDisplay:10.37,2013-07-26 17:20:00,
2013-07-26 13:30:00,90.7,78.7,30.00,West,268,7.0,12.0,68,0.00,RA,,0.30,WeatherDisplay:10.37,2013-07-26 17:30:00,
2013-07-26 13:40:00,90.9,78.4,30.00,WNW,282,7.0,12.0,67,0.00,RA,,0.30,WeatherDisplay:10.37,2013-07-26 17:40:00,
2013-07-26 13:50:00,91.6,78.6,30.00,West,271,7.0,13.0,66,0.00,RA,,0.30,WeatherDisplay:10.37,2013-07-26 17:50:00,
2013-07-26 14:00:00,91.8,77.9,29.99,West,272,8.0,12.0,64,0.00,RA,,0.30,WeatherDisplay:10.37,2013-07-26 18:00:00,
2013-07-26 14:10:00,91.2,78.7,29.99,West,263,10.0,14.0,67,0.00,RA,,0.30,WeatherDisplay:10.37,2013-07-26 18:10:00,
2013-07-26 14:20:00,92.1,79.1,29.99,West,267,9.0,12.0,66,0.00,RA,,0.30,WeatherDisplay:10.37,2013-07-26 18:20:00,
2013-07-26 14:30:00,91.4,78.4,29.99,West,277,6.0,12.0,66,0.00,RA,,0.30,WeatherDisplay:10.37,2013-07-26 18:30:00,
2013-07-26 14:40:00,92.4,78.9,29.98,West,266,9.0,13.0,65,0.00,RA,,0.30,WeatherDisplay:10.37,2013-07-26 18:40:00,
2013-07-26 14:50:00,91.6,78.1,29.98,West,265,7.0,14.0,65,0.00,RA,,0.30,WeatherDisplay:10.37,2013-07-26 18:50:00,
2013-07-26 15:00:00,91.7,78.3,29.98,West,263,10.0,15.0,65,0.00,RA,,0.30,WeatherDisplay:10.37,2013-07-26 19:00:00,
2013-07-26 15:10:00,92.1,78.2,29.98,West,269,9.0,13.0,64,0.00,RA,,0.30,WeatherDisplay:10.37,2013-07-26 19:10:00,
2013-07-26 15:20:00,91.5,78.0,29.98,West,280,7.0,13.0,65,0.00,RA,,0.30,WeatherDisplay:10.37,2013-07-26 19:20:00,
2013-07-26 15:30:00,90.3,77.8,29.97,West,278,8.0,13.0,67,0.00,RA,,0.30,WeatherDisplay:10.37,2013-07-26 19:30:00,
2013-07-26 15:40:00,91.1,78.6,29.96,West,280,9.0,15.0,67,0.00,RA,,0.30,WeatherDisplay:10.37,2013-07-26 19:40:00,
2013-07-26 15:50:00,91.1,79.0,29.96,West,278,9.0,16.0,68,0.00,RA,,0.30,WeatherDisplay:10.37,2013-07-26 19:50:00,
2013-07-26 16:00:00,90.7,78.6,29.97,West,279,10.0,16.0,68,0.00,RA,,0.30,WeatherDisplay:10.37,2013-07-26 20:00:00,
2013-07-26 16:10:00,90.7,77.8,29.97,West,277,9.0,16.0,66,0.00,RA,,0.30,WeatherDisplay:10.37,2013-07-26 20:10:00,
2013-07-26 16:20:00,90.4,78.0,29.98,West,270,10.0,15.0,67,0.00,RA,,0.30,WeatherDisplay:10.37,2013-07-26 20:20:00,
2013-07-26 16:30:00,89.4,78.3,29.97,WNW,286,9.0,14.0,70,0.00,RA,,0.30,WeatherDisplay:10.37,2013-07-26 20:30:00,
2013-07-26 16:40:00,89.5,78.4,29.97,WNW,282,10.0,16.0,70,0.00,RA,,0.30,WeatherDisplay:10.37,2013-07-26 20:40:00,
2013-07-26 16:50:00,89.4,77.4,29.97,West,277,8.0,14.0,68,0.00,RA,,0.30,WeatherDisplay:10.37,2013-07-26 20:50:00,
2013-07-26 17:00:00,89.3,78.2,29.97,WNW,291,12.0,16.0,70,0.00,RA,,0.30,WeatherDisplay:10.37,2013-07-26 21:00:00,
2013-07-26 17:10:00,89.2,78.1,29.97,West,279,10.0,16.0,70,0.00,RA,,0.30,WeatherDisplay:10.37,2013-07-26 21:10:00,
2013-07-26 17:20:00,88.5,77.5,29.97,WNW,288,9.0,15.0,70,0.00,RA,,0.30,WeatherDisplay:10.37,2013-07-26 21:20:00,
2013-07-26 17:30:00,87.8,77.2,29.98,WNW,300,7.0,17.0,71,0.00,RA,,0.30,WeatherDisplay:10.37,2013-07-26 21:30:00,
2013-07-26 17:40:00,88.2,75.9,29.97,WNW,289,9.0,16.0,67,0.00,RA,,0.30,WeatherDisplay:10.37,2013-07-26 21:40:00,
2013-07-26 17:50:00,87.9,77.4,29.97,NW,306,7.0,14.0,71,0.00,RA,,0.30,WeatherDisplay:10.37,2013-07-26 21:50:00,
2013-07-26 18:00:00,87.3,77.2,29.97,NW,304,6.0,15.0,72,0.00,RA,,0.30,WeatherDisplay:10.37,2013-07-26 22:00:00,
2013-07-26 18:10:00,87.4,77.3,29.97,WNW,301,6.0,12.0,72,0.00,RA,,0.30,WeatherDisplay:10.37,2013-07-26 22:10:00,
2013-07-26 18:20:00,87.3,77.2,29.96,West,280,7.0,12.0,72,0.00,RA,,0.30,WeatherDisplay:10.37,2013-07-26 22:20:00,
2013-07-26 18:30:00,86.9,77.2,29.96,WNW,293,7.0,12.0,73,0.00,RA,,0.30,WeatherDisplay:10.37,2013-07-26 22:30:00,
2013-07-26 18:40:00,86.9,77.2,29.95,WNW,287,8.0,12.0,73,0.00,RA,,0.30,WeatherDisplay:10.37,2013-07-26 22:40:00,
2013-07-26 18:50:00,86.7,77.0,29.96,West,277,8.0,13.0,73,0.00,RA,,0.30,WeatherDisplay:10.37,2013-07-26 22:50:00,
2013-07-26 19:00:00,86.5,76.4,29.96,West,278,7.0,12.0,72,0.00,RA,,0.30,WeatherDisplay:10.37,2013-07-26 23:00:00,
2013-07-26 19:10:00,86.3,76.6,29.96,WNW,283,8.0,10.0,73,0.00,RA,,0.30,WeatherDisplay:10.37,2013-07-26 23:10:00,
2013-07-26 19:20:00,85.9,77.1,29.96,West,278,8.0,14.0,75,0.00,RA,,0.30,WeatherDisplay:10.37,2013-07-26 23:20:00,
2013-07-26 19:30:00,85.7,77.3,29.96,West,278,6.0,10.0,76,0.00,RA,,0.30,WeatherDisplay:10.37,2013-07-26 23:30:00,
2013-07-26 19:40:00,85.2,77.2,29.96,West,278,6.0,10.0,77,0.00,RA,,0.30,WeatherDisplay:10.37,2013-07-26 23:40:00,
2013-07-26 19:50:00,84.9,77.3,29.97,West,276,3.0,9.0,78,0.00,RA,,0.30,WeatherDisplay:10.37,2013-07-26 23:50:00,
2013-07-26 20:00:00,84.7,77.5,29.97,WNW,291,3.0,9.0,79,0.00,RA,,0.30,WeatherDisplay:10.37,2013-07-27 00:00:00,
2013-07-26 20:10:00,84.6,77.0,29.97,WNW,286,7.0,10.0,78,0.00,RA,,0.30,WeatherDisplay:10.37,2013-07-27 00:10:00,
2013-07-26 20:20:00,84.5,77.3,29.97,WNW,287,3.0,8.0,79,0.00,RA,,0.30,WeatherDisplay:10.37,2013-07-27 00:20:00,
2013-07-26 20:30:00,84.5,76.9,29.98,West,271,5.0,8.0,78,0.00,RA,,0.30,WeatherDisplay:10.37,2013-07-27 00:30:00,
2013-07-26 20:40:00,84.4,77.6,29.98,WNW,285,6.0,9.0,80,0.00,RA,,0.30,WeatherDisplay:10.37,2013-07-27 00:40:00,
2013-07-26 20:50:00,84.3,77.5,29.98,West,277,5.0,12.0,80,0.00,RA,,0.30,WeatherDisplay:10.37,2013-07-27 00:50:00,
2013-07-26 21:00:00,84.3,77.5,29.98,West,277,6.0,9.0,80,0.00,RA,,0.30,WeatherDisplay:10.37,2013-07-27 01:00:00,
2013-07-26 21:10:00,84.2,77.4,29.98,West,271,6.0,8.0,80,0.00,RA,,0.30,WeatherDisplay:10.37,2013-07-27 01:10:00,
2013-07-26 21:20:00,84.2,77.7,29.98,West,279,3.0,7.0,81,0.00,RA,,0.30,WeatherDisplay:10.37,2013-07-27 01:20:00,
2013-07-26 21:30:00,84.1,77.3,29.98,WNW,284,3.0,8.0,80,0.00,RA,,0.30,WeatherDisplay:10.37,2013-07-27 01:30:00,
2013-07-26 21:40:00,84.0,77.2,29.98,WNW,284,5.0,8.0,80,0.00,RA,,0.30,WeatherDisplay:10.37,2013-07-27 01:40:00,
2013-07-26 21:50:00,84.1,77.6,29.98,West,278,5.0,10.0,81,0.00,RA,,0.30,WeatherDisplay:10.37,2013-07-27 01:50:00,
2013-07-26 22:00:00,83.9,77.4,29.98,West,271,8.0,12.0,81,0.00,RA,,0.30,WeatherDisplay:10.37,2013-07-27 02:00:00,
2013-07-26 22:10:00,83.8,77.3,29.98,West,276,5.0,12.0,81,0.00,RA,,0.30,WeatherDisplay:10.37,2013-07-27 02:10:00,
2013-07-26 22:20:00,83.7,77.2,29.99,WNW,287,5.0,12.0,81,0.00,RA,,0.30,WeatherDisplay:10.37,2013-07-27 02:20:00,
2013-07-26 22:30:00,83.6,77.1,29.99,WNW,292,2.0,8.0,81,0.00,RA,,0.30,WeatherDisplay:10.37,2013-07-27 02:30:00,
2013-07-26 22:40:00,83.5,77.4,29.99,WNW,297,2.0,5.0,82,0.00,RA,,0.30,WeatherDisplay:10.37,2013-07-27 02:40:00,
2013-07-26 22:50:00,83.5,77.1,29.99,West,274,3.0,9.0,81,0.00,RA,,0.30,WeatherDisplay:10.37,2013-07-27 02:50:00,
2013-07-26 23:00:00,83.4,77.0,29.99,WNW,287,5.0,8.0,81,0.00,RA,,0.30,WeatherDisplay:10.37,2013-07-27 03:00:00,
2013-07-26 23:10:00,83.3,76.5,29.99,West,281,3.0,7.0,80,0.00,RA,,0.30,WeatherDisplay:10.37,2013-07-27 03:10:00,
2013-07-26 23:20:00,83.3,76.9,30.00,West,281,5.0,8.0,81,0.00,RA,,0.30,WeatherDisplay:10.37,2013-07-27 03:20:00,
2013-07-26 23:30:00,83.2,76.8,29.99,West,272,6.0,9.0,81,0.00,RA,,0.30,WeatherDisplay:10.37,2013-07-27 03:30:00,
2013-07-26 23:40:00,83.1,76.7,29.99,West,275,6.0,10.0,81,0.00,RA,,0.30,WeatherDisplay:10.37,2013-07-27 03:40:00,
2013-07-26 23:50:00,83.1,77.0,29.99,West,281,6.0,8.0,82,0.00,RA,,0.30,WeatherDisplay:10.37,2013-07-27 03:50:00,